[[{"header":{"parameterUnit":"m.s-1","parameterCategory":2,"la1":30.2991,"la2":30.254,"lo1":-89.0895,"lo2":-89.0444,"dy":0.0017,"dx":0.0017,"nx":28,"ny":28,"refTime":"2023-11-08T09:00:00:Z","depth":"0","parameterNumber":2,"parameterNumberName":"U-component_of_CURRENTS"},"data":[0,0,0,0,0,0,0,0,0,0,0,0,0,0,0,0,0,0,0,0,0,0,0,0,0,0,0,0,0,0,0,0,0,0,0,0,0,0,0,0,0,0,0,0,0,0,0,0,0,0,0,0,0,0,0,0,0,0,-0.0209,-0.0208,0,-0.0165,-0.0165,-0.0164,-0.0142,-0.0141,-0.0141,-0.0141,-0.0055,-0.0052,-0.005,0,0,0,0,0,0,0,0,0,0,0,0,0,-0.0192,-0.0193,-0.0209,-0.0208,-0.0207,-0.0165,-0.0165,-0.0164,-0.0142,-0.0141,-0.0141,-0.0141,-0.0055,-0.0053,-0.005,0,0,0,0,0,0,0,0,0,0,0,0,0,-0.0181,-0.0194,-0.0209,-0.0189,-0.0187,-0.0165,-0.0165,-0.0164,-0.0142,-0.0141,-0.0141,-0.0141,-0.0056,-0.0053,-0.005,-0.0037,0,0,-0.004,-0.0039,0,0,0,0,0,0,0,0,-0.0182,-0.0182,-0.0193,-0.0191,-0.0188,-0.0157,-0.0127,-0.0119,-0.0142,-0.0161,-0.0141,-0.0141,-0.0084,-0.0078,-0.0074,-0.0033,-0.0029,-0.004,-0.0038,-0.0037,-0.0036,0,0,0,0,0,0,0,-0.0183,-0.0183,-0.0193,-0.0192,-0.0189,-0.0155,-0.0154,-0.0125,-0.0126,-0.0159,-0.0157,-0.0149,-0.0082,-0.0077,-0.0072,-0.0028,-0.004,-0.0037,-0.0035,-0.0034,-0.0054,-0.0056,0,0,0,0,0,0,-0.0189,-0.0185,-0.0195,-0.0192,-0.0182,-0.0156,-0.0155,-0.0169,-0.0127,-0.012,-0.0149,-0.0148,-0.0083,-0.0076,-0.0069,-0.015,-0.0037,-0.0034,-0.0032,-0.0052,-0.0055,-0.0057,0,0,0,0,0,0,-0.0189,-0.0191,-0.0196,-0.0184,-0.0182,-0.0157,-0.0172,-0.0168,-0.0158,-0.0119,-0.0112,-0.0142,-0.0082,-0.0073,-0.0076,-0.0143,-0.0032,-0.003,-0.0049,-0.0053,-0.0056,-0.0249,0,0,0,0,0,0,-0.0189,-0.0192,-0.0207,-0.0186,-0.0183,-0.0201,-0.0172,-0.0167,-0.0152,-0.015,-0.0111,-0.0103,-0.0081,-0.0081,-0.0073,-0.0136,-0.0027,-0.0046,-0.0051,-0.0055,-0.024,-0.0259,-0.0275,0,0,0,0,0,-0.0189,-0.0205,-0.0208,-0.0209,-0.0204,-0.0202,-0.0199,-0.0179,-0.0152,-0.0165,-0.015,-0.0104,-0.0104,-0.0081,-0.007,-0.0134,-0.0044,-0.0049,-0.0054,-0.0232,-0.0255,-0.0275,0,0,0,0,0,0,-0.0203,-0.0204,-0.0207,-0.0223,-0.0223,-0.0198,-0.0193,-0.0177,-0.0173,-0.0168,-0.0126,-0.012,-0.0146,-0.0106,-0.008,-0.0153,-0.0069,-0.0072,-0.0207,-0.0228,-0.0246,-0.027,-0.0024,0,0,0,0,0,-0.0215,-0.0231,-0.0227,-0.0242,-0.0237,-0.0215,-0.0207,-0.0203,-0.0191,-0.0187,-0.0171,-0.0156,-0.0161,-0.0166,-0.0152,-0.0184,-0.0162,-0.0219,-0.0237,-0.0253,-0.0265,-0.0313,-0.0338,-0.0075,-0.0075,-0.0075,0,0,-0.0223,-0.0225,-0.0234,-0.0246,-0.0233,-0.0258,-0.021,-0.0209,-0.0254,-0.0177,-0.0226,-0.0204,-0.0178,-0.0232,-0.0241,-0.0209,-0.0315,-0.026,-0.0274,-0.0277,-0.0322,-0.0348,-0.0371,-0.0079,-0.0078,-0.0078,0,0,-0.0231,-0.0249,-0.0256,-0.0275,-0.0274,-0.0279,-0.0281,-0.0276,-0.0297,-0.0331,-0.0308,-0.0338,-0.0316,-0.0356,-0.0358,-0.0458,-0.0397,-0.0441,-0.0568,-0.0616,-0.0639,-0.0658,-0.0667,-0.0685,-0.0466,-0.0466,-0.0466,0,-0.0236,-0.0264,-0.0258,-0.028,-0.0304,-0.0293,-0.0324,-0.0357,-0.0369,-0.041,-0.0367,-0.0415,-0.0388,-0.0494,-0.0538,-0.0505,-0.0497,-0.0495,-0.0643,-0.0662,-0.0679,-0.0682,-0.07,-0.0476,-0.0475,-0.0474,-0.0473,0,-0.0253,-0.0293,-0.0297,-0.0342,-0.0368,-0.0397,-0.0442,-0.0491,-0.0502,-0.054,-0.0626,-0.0618,-0.0645,-0.0662,-0.0625,-0.0752,-0.0696,-0.0652,-0.0596,-0.0717,-0.0712,-0.0728,-0.049,-0.0487,-0.0484,-0.0481,0,0,-0.0232,-0.0296,-0.03,-0.0342,-0.0412,-0.043,-0.0535,-0.0624,-0.0696,-0.0746,-0.0838,-0.0892,-0.0883,-0.0886,-0.0871,-0.0933,-0.1044,-0.0853,-0.0851,-0.0873,-0.1127,-0.1011,-0.1015,-0.1029,-0.1033,-0.1036,-0.1078,0,-0.0249,-0.0296,-0.0338,-0.0424,-0.0463,-0.0533,-0.063,-0.0726,-0.0795,-0.0892,-0.0953,-0.1002,-0.0974,-0.0974,-0.1053,-0.102,-0.1092,-0.1034,-0.0994,-0.0992,-0.0886,-0.1033,-0.0939,-0.0962,-0.1092,-0.1095,-0.1096,0,-0.0264,-0.0299,-0.0354,-0.0483,-0.0503,-0.0551,-0.0701,-0.0786,-0.0949,-0.1,-0.1105,-0.113,-0.1236,-0.1165,-0.1256,-0.1215,-0.1195,-0.1184,-0.1185,-0.1018,-0.0906,-0.0859,-0.0984,-0.0971,-0.1119,-0.1117,-0.1116,0,-0.0238,-0.0332,-0.0369,-0.0411,-0.0535,-0.0579,-0.0642,-0.0802,-0.0882,-0.1041,-0.1099,-0.1245,-0.1261,-0.1315,-0.1292,-0.1274,-0.1361,-0.1321,-0.1221,-0.121,-0.1091,-0.1063,-0.1208,-0.1411,-0.1411,-0.1411,-0.1411,0,-0.0262,-0.0302,-0.0345,-0.0372,-0.0435,-0.0532,-0.0627,-0.0725,-0.0869,-0.0971,-0.1114,-0.1201,-0.1296,-0.1357,-0.1348,-0.1324,-0.1404,-0.1274,-0.1236,-0.1151,-0.113,-0.1074,-0.107,-0.1412,-0.1412,-0.1412,-0.1411,0,-0.0225,-0.0265,-0.0302,-0.0385,-0.0412,-0.0431,-0.055,-0.0637,-0.0774,-0.0902,-0.094,-0.1152,-0.121,-0.129,-0.1348,-0.1349,-0.1318,-0.132,-0.1193,-0.114,-0.1014,-0.1022,-0.1104,-0.1083,-0.1238,-0.1235,-0.1233,0,-0.0209,-0.0221,-0.0251,-0.0261,-0.0278,-0.0335,-0.0398,-0.0542,-0.0626,-0.0864,-0.0911,-0.1042,-0.1106,-0.1171,-0.1183,-0.1175,-0.1206,-0.1118,-0.1081,-0.1031,-0.1015,-0.1039,-0.1018,-0.1004,-0.1,-0.0997,-0.0994,0,-0.0191,-0.017,-0.0192,-0.0174,-0.0196,-0.0247,-0.0326,-0.0362,-0.0553,-0.0653,-0.0786,-0.0852,-0.0955,-0.094,-0.0957,-0.095,-0.1073,-0.1052,-0.1066,-0.0912,-0.0887,-0.0836,-0.0926,-0.0968,-0.0971,-0.0972,-0.0974,-0.0975,-0.015,-0.0132,-0.0129,-0.0107,-0.014,-0.0142,-0.0135,-0.0214,-0.0273,-0.0359,-0.054,-0.0544,-0.0732,-0.072,-0.0741,-0.075,-0.0818,-0.076,-0.0794,-0.0839,-0.0775,-0.0781,-0.0729,-0.073,-0.0731,-0.0732,-0.0733,0,-0.0138,-0.0114,-0.0088,-0.0059,-0.0061,-0.0078,-0.0106,-0.0079,-0.0061,-0.0073,-0.012,-0.0184,-0.0266,-0.0414,-0.0527,-0.0532,-0.0563,-0.0558,-0.0608,-0.0615,-0.0673,-0.0614,-0.0456,-0.0456,-0.0456,-0.0456,-0.0456,-0.0456,-0.0137,-0.0101,-0.0065,-0.0008,0.0016,0.0055,0.0083,0.0165,0.0211,0.0323,0.0388,0.0363,0.0063,-0.028,-0.0424,-0.0436,-0.0485,-0.0456,-0.0527,-0.0583,-0.0606,-0.0628,-0.0576,-0.0412,-0.0412,-0.0436,-0.0436,-0.0436]},{"header":{"parameterUnit":"m.s-1","parameterCategory":2,"la1":30.2991,"la2":30.254,"lo1":-89.0895,"lo2":-89.0444,"dy":0.0017,"dx":0.0017,"nx":28,"ny":28,"refTime":"2023-11-08T09:00:00:Z","depth":"0","parameterNumber":3,"parameterNumberName":"V-component_of_CURRENTS"},"data":[0,0,0,0,0,0,0,0,0,0,0,0,0,0,0,0,0,0,0,0,0,0,0,0,0,0,0,0,0,0,0,0,0,0,0,0,0,0,0,0,0,0,0,0,0,0,0,0,0,0,0,0,0,0,0,0,0,0,0.0506,0.0507,0,0.0635,0.0637,0.0639,0.0703,0.0703,0.0702,0.0702,0.0735,0.0736,0.0737,0,0,0,0,0,0,0,0,0,0,0,0,0,0.0465,0.0465,0.0506,0.0507,0.0508,0.0635,0.0637,0.0639,0.0703,0.0703,0.0702,0.0702,0.0735,0.0736,0.0737,0,0,0,0,0,0,0,0,0,0,0,0,0,0.053,0.0465,0.0505,0.0553,0.0558,0.0635,0.0637,0.064,0.0703,0.0702,0.0702,0.0702,0.0734,0.0736,0.0737,0.0757,0,0,0.0743,0.0743,0,0,0,0,0,0,0,0,0.0526,0.0532,0.0545,0.055,0.0556,0.065,0.0635,0.0673,0.0703,0.0651,0.0702,0.0701,0.0696,0.0701,0.0732,0.0758,0.0759,0.0743,0.0744,0.0745,0.0745,0,0,0,0,0,0,0,0.0521,0.0527,0.056,0.0546,0.0553,0.062,0.0628,0.0644,0.0675,0.0656,0.066,0.067,0.0698,0.073,0.0733,0.076,0.0743,0.0744,0.0745,0.0746,0.0871,0.0873,0,0,0,0,0,0,0.0491,0.0522,0.0556,0.0564,0.0536,0.062,0.0629,0.0623,0.0677,0.0685,0.067,0.0672,0.0727,0.0731,0.0734,0.0766,0.0745,0.0746,0.0747,0.0868,0.0871,0.0873,0,0,0,0,0,0,0.049,0.0493,0.0551,0.0545,0.0556,0.062,0.0613,0.0625,0.0656,0.0688,0.0695,0.0687,0.0727,0.0731,0.0779,0.0767,0.0747,0.0749,0.0866,0.0869,0.0872,0.0826,0,0,0,0,0,0,0.0488,0.0491,0.0489,0.0542,0.0555,0.0599,0.0614,0.0628,0.0661,0.0665,0.0705,0.0708,0.0727,0.0777,0.0781,0.0769,0.075,0.0863,0.0867,0.0871,0.0825,0.0827,0.083,0,0,0,0,0,0.0486,0.0486,0.0488,0.0493,0.0545,0.06,0.0614,0.0661,0.0662,0.0684,0.0726,0.0707,0.0806,0.078,0.0784,0.0773,0.0861,0.0866,0.0871,0.0823,0.0827,0.083,0,0,0,0,0,0,0.0488,0.0494,0.0497,0.0503,0.0546,0.0609,0.064,0.0657,0.071,0.0711,0.0736,0.0744,0.0777,0.0801,0.0771,0.0831,0.083,0.0836,0.0792,0.0796,0.0798,0.0749,0.0751,0,0,0,0,0,0.0478,0.0458,0.0502,0.0503,0.053,0.058,0.061,0.0633,0.0681,0.0704,0.0734,0.0773,0.0805,0.082,0.0855,0.0885,0.091,0.0887,0.0889,0.0891,0.086,0.0945,0.0951,0.089,0.089,0.089,0,0,0.0477,0.0476,0.0467,0.0499,0.054,0.057,0.0599,0.0639,0.0648,0.0695,0.0733,0.0777,0.0818,0.0859,0.0874,0.0872,0.0923,0.0898,0.0898,0.0865,0.0951,0.0956,0.0961,0.0894,0.0893,0.0893,0,0,0.0468,0.047,0.0463,0.0492,0.0534,0.0566,0.0571,0.0635,0.0656,0.0699,0.0735,0.0787,0.0835,0.0872,0.089,0.0933,0.0934,0.0941,0.0904,0.0988,0.0992,0.0996,0.1026,0.1033,0.0942,0.0941,0.0941,0,0.0465,0.0449,0.0478,0.0491,0.0499,0.0555,0.0563,0.0603,0.0669,0.067,0.0703,0.0797,0.0838,0.0871,0.0892,0.0929,0.0961,0.0877,0.0986,0.0991,0.0995,0.1025,0.1034,0.094,0.094,0.094,0.094,0,0.0465,0.045,0.0459,0.0466,0.0493,0.0506,0.0554,0.0576,0.06,0.0631,0.0677,0.0771,0.0811,0.085,0.0875,0.0924,0.0929,0.0975,0.0962,0.0998,0.1028,0.1038,0.0938,0.0938,0.0939,0.0939,0,0,0.044,0.0446,0.0446,0.042,0.0465,0.0475,0.0493,0.0511,0.0489,0.0587,0.0585,0.0684,0.0725,0.0752,0.0814,0.0895,0.0965,0.0936,0.0941,0.0934,0.111,0.1099,0.1108,0.1031,0.1033,0.1034,0.1112,0,0.0421,0.0399,0.0418,0.0389,0.0378,0.0409,0.0404,0.0425,0.0456,0.048,0.0581,0.0616,0.069,0.071,0.0803,0.0929,0.0989,0.0936,0.1102,0.1105,0.1067,0.1119,0.1102,0.1169,0.1121,0.1123,0.1124,0,0.0407,0.0381,0.0353,0.0287,0.0289,0.029,0.0255,0.026,0.0307,0.0328,0.0397,0.0475,0.0589,0.0664,0.0875,0.0837,0.0945,0.1055,0.1062,0.1065,0.1113,0.1133,0.1188,0.1208,0.1138,0.1137,0.1136,0,0.0342,0.0314,0.0268,0.0262,0.0239,0.0214,0.02,0.0215,0.0191,0.0243,0.0243,0.0388,0.0473,0.0647,0.0859,0.0867,0.1097,0.1146,0.1229,0.1228,0.1248,0.1246,0.1313,0.1275,0.1274,0.1274,0.1274,0,0.029,0.025,0.0231,0.0206,0.0134,0.0141,0.0076,0.0073,0.0076,0.0055,0.0164,0.0224,0.0479,0.0642,0.0825,0.105,0.1073,0.121,0.1256,0.1233,0.1228,0.1275,0.128,0.1277,0.1276,0.1276,0.1275,0,0.0248,0.0235,0.0179,0.0133,0.0106,0.0069,0.0,-0.0052,-0.0049,-0.0063,-0.005,0.012,0.0346,0.0567,0.0872,0.1002,0.1244,0.1281,0.1203,0.1239,0.1325,0.1328,0.1422,0.1479,0.1381,0.1381,0.1381,0,0.0237,0.0197,0.013,0.0097,0.0084,0.0016,-0.005,-0.0095,-0.0144,-0.01,-0.01,0.0093,0.0314,0.0715,0.0939,0.1208,0.1273,0.1317,0.1339,0.1312,0.1352,0.1349,0.1391,0.1349,0.1349,0.1349,0.1349,0,0.0203,0.0182,0.0135,0.0063,0.0001,-0.0086,-0.0173,-0.0229,-0.0271,-0.0259,-0.0102,0.0106,0.0463,0.0812,0.1074,0.1232,0.1311,0.1323,0.1349,0.136,0.1312,0.1395,0.1272,0.1349,0.1349,0.1349,0.1349,0.1349,0.0192,0.0156,0.0086,0.0031,-0.0053,-0.0154,-0.0206,-0.0281,-0.032,-0.0249,-0.0028,0.0311,0.0731,0.1149,0.1246,0.132,0.135,0.1397,0.1409,0.1412,0.1446,0.1281,0.1381,0.1381,0.1381,0.1381,0.1381,0,0.0169,0.0116,0.0049,-0.0032,-0.0123,-0.015,-0.0272,-0.0288,-0.0289,-0.0157,0.0093,0.0673,0.0998,0.1235,0.136,0.1412,0.1443,0.1439,0.1436,0.1489,0.1393,0.1368,0.1406,0.1406,0.1406,0.1406,0.1406,0.1406,0.0154,0.0083,0.0047,-0.0076,-0.0124,-0.0201,-0.024,-0.0232,-0.016,0.0129,0.0446,0.0819,0.1198,0.1354,0.1421,0.1441,0.1525,0.1485,0.1567,0.1476,0.1473,0.147,0.1448,0.1502,0.1502,0.1661,0.1662,0.1663]}],[{"header":{"parameterUnit":"m.s-1","parameterCategory":2,"la1":30.2991,"la2":30.254,"lo1":-89.0895,"lo2":-89.0444,"dy":0.0017,"dx":0.0017,"nx":28,"ny":28,"refTime":"2023-11-08T09:00:00:Z","depth":"2","parameterNumber":2,"parameterNumberName":"U-component_of_CURRENTS"},"data":[0,0,0,0,0,0,0,0,0,0,0,0,0,0,0,0,0,0,0,0,0,0,0,0,0,0,0,0,0,0,0,0,0,0,0,0,0,0,0,0,0,0,0,0,0,0,0,0,0,0,0,0,0,0,0,0,0,0,-0.2532,-0.2531,0,-0.2497,-0.2497,-0.2496,-0.2401,-0.2399,-0.2397,-0.2395,-0.2268,-0.2267,-0.2265,0,0,0,0,0,0,0,0,0,0,0,0,0,-0.2521,-0.2522,-0.2532,-0.2531,-0.2531,-0.2497,-0.2497,-0.2496,-0.2401,-0.2399,-0.2396,-0.2394,-0.2269,-0.2267,-0.2265,0,0,0,0,0,0,0,0,0,0,0,0,0,-0.2511,-0.2522,-0.2532,-0.2479,-0.2474,-0.2497,-0.2497,-0.2496,-0.2402,-0.2399,-0.2396,-0.2393,-0.2269,-0.2267,-0.2265,-0.2314,0,0,-0.2258,-0.2257,0,0,0,0,0,0,0,0,-0.2511,-0.2511,-0.2487,-0.2483,-0.2477,-0.245,-0.2446,-0.2431,-0.2403,-0.243,-0.2395,-0.2391,-0.2323,-0.2316,-0.2318,-0.2308,-0.2303,-0.2258,-0.2257,-0.2256,-0.2255,0,0,0,0,0,0,0,-0.2512,-0.2512,-0.2518,-0.2487,-0.2481,-0.2459,-0.2454,-0.2443,-0.2393,-0.2427,-0.242,-0.2417,-0.2319,-0.232,-0.2314,-0.2301,-0.2258,-0.2256,-0.2255,-0.2254,-0.2228,-0.2229,0,0,0,0,0,0,-0.252,-0.2513,-0.2519,-0.2517,-0.2487,-0.2462,-0.2456,-0.2462,-0.2394,-0.2382,-0.2419,-0.2412,-0.2326,-0.2317,-0.2309,-0.2254,-0.2256,-0.2254,-0.2253,-0.2227,-0.2228,-0.2229,0,0,0,0,0,0,-0.252,-0.2521,-0.2521,-0.2513,-0.2511,-0.2465,-0.2473,-0.2463,-0.2436,-0.239,-0.2374,-0.2398,-0.2323,-0.2312,-0.2281,-0.2252,-0.2253,-0.2251,-0.2227,-0.2228,-0.2229,-0.2213,0,0,0,0,0,0,-0.252,-0.2522,-0.252,-0.2514,-0.2512,-0.2519,-0.2475,-0.2465,-0.244,-0.243,-0.2368,-0.2354,-0.2319,-0.2285,-0.2279,-0.2249,-0.2249,-0.2226,-0.2227,-0.2228,-0.2212,-0.2213,-0.2213,0,0,0,0,0,-0.252,-0.2536,-0.2521,-0.2521,-0.2515,-0.2519,-0.2516,-0.2473,-0.2442,-0.2436,-0.2393,-0.2354,-0.2287,-0.2284,-0.2277,-0.2245,-0.2226,-0.2227,-0.2228,-0.2212,-0.2213,-0.2213,0,0,0,0,0,0,-0.2526,-0.2528,-0.2511,-0.2524,-0.2513,-0.2502,-0.2492,-0.2472,-0.2439,-0.2416,-0.2369,-0.2355,-0.2315,-0.2301,-0.2299,-0.2246,-0.2248,-0.2248,-0.2238,-0.2238,-0.2239,-0.2241,-0.2248,0,0,0,0,0,-0.2532,-0.2542,-0.2536,-0.2543,-0.2537,-0.2515,-0.2507,-0.2482,-0.2458,-0.2438,-0.2394,-0.2354,-0.2326,-0.2296,-0.2275,-0.2254,-0.2234,-0.223,-0.223,-0.2231,-0.2231,-0.2183,-0.2177,-0.2233,-0.2233,-0.2233,0,0,-0.2536,-0.2538,-0.2541,-0.2544,-0.2529,-0.2534,-0.2501,-0.2489,-0.2477,-0.2433,-0.2392,-0.2358,-0.2326,-0.2291,-0.2271,-0.2264,-0.2207,-0.2232,-0.2232,-0.2233,-0.2183,-0.2177,-0.2172,-0.2234,-0.2234,-0.2234,0,0,-0.2559,-0.2549,-0.2565,-0.2563,-0.2547,-0.2536,-0.2531,-0.2509,-0.2475,-0.2455,-0.241,-0.2362,-0.2327,-0.2283,-0.2263,-0.2263,-0.2219,-0.2252,-0.2239,-0.2191,-0.2185,-0.218,-0.2153,-0.2145,-0.2241,-0.2241,-0.2241,0,-0.2554,-0.2578,-0.2568,-0.2582,-0.2573,-0.2539,-0.2544,-0.2526,-0.249,-0.2457,-0.2436,-0.2359,-0.2323,-0.227,-0.2261,-0.2257,-0.2234,-0.2232,-0.2188,-0.2183,-0.2177,-0.2151,-0.2143,-0.2241,-0.2241,-0.2241,-0.2241,0,-0.2595,-0.2603,-0.261,-0.2615,-0.2607,-0.2605,-0.2579,-0.2549,-0.2504,-0.2474,-0.2406,-0.2359,-0.2304,-0.2283,-0.2268,-0.2209,-0.2207,-0.2199,-0.2179,-0.217,-0.2144,-0.2135,-0.224,-0.224,-0.224,-0.224,0,0,-0.2594,-0.2632,-0.2626,-0.2629,-0.2617,-0.2613,-0.259,-0.2552,-0.2521,-0.2463,-0.2415,-0.2349,-0.2301,-0.2278,-0.2237,-0.2189,-0.2128,-0.2174,-0.2172,-0.2135,-0.2031,-0.1994,-0.1981,-0.2103,-0.2101,-0.21,-0.2029,0,-0.2613,-0.2654,-0.2659,-0.2667,-0.2675,-0.2637,-0.2621,-0.2577,-0.2527,-0.2477,-0.2395,-0.234,-0.2307,-0.2263,-0.2212,-0.2153,-0.2105,-0.2149,-0.2058,-0.2056,-0.2011,-0.1969,-0.1757,-0.1673,-0.2021,-0.2019,-0.2018,0,-0.2634,-0.2658,-0.2679,-0.2683,-0.2678,-0.2674,-0.2615,-0.2598,-0.2524,-0.2479,-0.2401,-0.2348,-0.2258,-0.224,-0.2117,-0.2144,-0.2089,-0.2045,-0.2041,-0.2004,-0.2002,-0.1739,-0.1644,-0.2004,-0.2005,-0.2006,-0.2007,0,-0.2624,-0.2659,-0.2671,-0.2675,-0.268,-0.2657,-0.2641,-0.2582,-0.2539,-0.2469,-0.2418,-0.2331,-0.2253,-0.2181,-0.2079,-0.2091,-0.1958,-0.1964,-0.1882,-0.188,-0.1681,-0.1665,-0.1881,-0.1881,-0.1882,-0.1882,-0.1882,0,-0.2635,-0.2636,-0.2668,-0.2672,-0.2656,-0.2658,-0.2612,-0.2584,-0.2526,-0.2454,-0.2408,-0.2323,-0.2228,-0.2137,-0.2077,-0.1943,-0.1947,-0.1868,-0.1847,-0.1674,-0.1658,-0.1937,-0.1944,-0.1879,-0.188,-0.188,-0.1881,0,-0.2603,-0.2638,-0.2645,-0.2658,-0.2651,-0.2629,-0.2585,-0.2554,-0.2508,-0.2415,-0.238,-0.2286,-0.2156,-0.2079,-0.1952,-0.1909,-0.1815,-0.1772,-0.159,-0.1549,-0.1779,-0.1786,-0.1675,-0.1673,-0.1671,-0.1669,-0.1668,0,-0.259,-0.2597,-0.2612,-0.2609,-0.2606,-0.2579,-0.2552,-0.2525,-0.2469,-0.2368,-0.2304,-0.2185,-0.2051,-0.1886,-0.1734,-0.1612,-0.1729,-0.1434,-0.1421,-0.1761,-0.1751,-0.1762,-0.1772,-0.1152,-0.1146,-0.1142,-0.1138,0,-0.2545,-0.2548,-0.2556,-0.2542,-0.2525,-0.2492,-0.2442,-0.2402,-0.2341,-0.2266,-0.2123,-0.2028,-0.1815,-0.1555,-0.1432,-0.1357,-0.1443,-0.1344,-0.1688,-0.1262,-0.1267,-0.126,-0.1286,-0.1099,-0.1103,-0.1106,-0.1108,-0.1109,-0.2485,-0.2467,-0.2468,-0.2441,-0.2421,-0.2351,-0.2278,-0.223,-0.2121,-0.1898,-0.1906,-0.165,-0.1516,-0.1156,-0.1081,-0.1025,-0.1137,-0.1112,-0.1124,-0.1142,-0.1118,-0.1122,-0.0923,-0.0926,-0.0928,-0.0931,-0.0932,0,-0.2392,-0.237,-0.2358,-0.2297,-0.222,-0.2241,-0.2149,-0.2026,-0.1857,-0.1652,-0.1464,-0.1125,-0.0919,-0.0844,-0.0643,-0.0644,-0.063,-0.068,-0.0635,-0.0671,-0.0705,-0.066,-0.0343,-0.0342,-0.0342,-0.0341,0,0,-0.2335,-0.2284,-0.2267,-0.2092,-0.2037,-0.1877,-0.1801,-0.1638,-0.1456,-0.1125,-0.0892,-0.0747,-0.0742,-0.0492,-0.0455,-0.0375,-0.0534,-0.0359,-0.0811,-0.0788,-0.0821,-0.0913,-0.0881,0,0,0,0,0]},{"header":{"parameterUnit":"m.s-1","parameterCategory":2,"la1":30.2991,"la2":30.254,"lo1":-89.0895,"lo2":-89.0444,"dy":0.0017,"dx":0.0017,"nx":28,"ny":28,"refTime":"2023-11-08T09:00:00:Z","depth":"2","parameterNumber":3,"parameterNumberName":"V-component_of_CURRENTS"},"data":[0,0,0,0,0,0,0,0,0,0,0,0,0,0,0,0,0,0,0,0,0,0,0,0,0,0,0,0,0,0,0,0,0,0,0,0,0,0,0,0,0,0,0,0,0,0,0,0,0,0,0,0,0,0,0,0,0,0,-0.0232,-0.0231,0,-0.016,-0.0159,-0.0158,-0.0183,-0.0185,-0.0187,-0.0188,-0.0153,-0.0151,-0.0148,0,0,0,0,0,0,0,0,0,0,0,0,0,-0.0289,-0.0288,-0.0232,-0.0231,-0.023,-0.016,-0.0159,-0.0158,-0.0183,-0.0185,-0.0187,-0.0189,-0.0154,-0.0151,-0.0148,0,0,0,0,0,0,0,0,0,0,0,0,0,-0.0244,-0.0288,-0.0232,-0.0235,-0.0235,-0.0161,-0.0159,-0.0158,-0.0182,-0.0185,-0.0188,-0.019,-0.0155,-0.0151,-0.0148,-0.0074,0,0,-0.0136,-0.0135,0,0,0,0,0,0,0,0,-0.0247,-0.0242,-0.0236,-0.0235,-0.0234,-0.0184,-0.0167,-0.0132,-0.0182,-0.0201,-0.0188,-0.0191,-0.0166,-0.0161,-0.014,-0.0072,-0.007,-0.0136,-0.0134,-0.0132,-0.0131,0,0,0,0,0,0,0,-0.025,-0.0245,-0.0202,-0.0234,-0.0234,-0.0205,-0.0203,-0.0159,-0.017,-0.02,-0.0201,-0.0195,-0.0166,-0.0144,-0.014,-0.007,-0.0136,-0.0133,-0.013,-0.0129,-0.0027,-0.0027,0,0,0,0,0,0,-0.0264,-0.0248,-0.0205,-0.02,-0.0248,-0.0203,-0.02,-0.0197,-0.017,-0.0168,-0.0193,-0.0196,-0.0149,-0.0144,-0.0139,-0.0143,-0.0132,-0.0129,-0.0126,-0.0028,-0.0027,-0.0027,0,0,0,0,0,0,-0.0265,-0.026,-0.0208,-0.0223,-0.0215,-0.02,-0.0196,-0.0194,-0.0207,-0.0164,-0.0164,-0.0212,-0.0151,-0.0144,-0.0122,-0.0139,-0.0127,-0.0123,-0.0028,-0.0028,-0.0027,-0.0092,0,0,0,0,0,0,-0.0267,-0.0261,-0.0272,-0.0224,-0.0215,-0.0184,-0.0194,-0.0191,-0.0197,-0.0202,-0.0179,-0.0177,-0.0152,-0.0128,-0.0119,-0.0133,-0.012,-0.0029,-0.0028,-0.0027,-0.009,-0.0093,-0.0096,0,0,0,0,0,-0.0269,-0.0272,-0.0273,-0.0268,-0.0227,-0.0183,-0.0176,-0.0172,-0.0196,-0.0195,-0.0183,-0.018,-0.0117,-0.0124,-0.0113,-0.0127,-0.0029,-0.0028,-0.0027,-0.0089,-0.0093,-0.0096,0,0,0,0,0,0,-0.0302,-0.0273,-0.0273,-0.0269,-0.0239,-0.0189,-0.0191,-0.0186,-0.0173,-0.0194,-0.0164,-0.0158,-0.0148,-0.0118,-0.0127,-0.0093,-0.0075,-0.0072,-0.0126,-0.0129,-0.0132,-0.0107,-0.0117,0,0,0,0,0,-0.0312,-0.0311,-0.0271,-0.0269,-0.0261,-0.0231,-0.022,-0.0216,-0.0192,-0.0192,-0.0172,-0.0152,-0.0124,-0.0116,-0.0082,-0.0055,0.0002,-0.0058,-0.0061,-0.0064,-0.0034,0.0041,0.0048,-0.0023,-0.0023,-0.0023,0,0,-0.0325,-0.0308,-0.0309,-0.0277,-0.0259,-0.0234,-0.0232,-0.0224,-0.0209,-0.0186,-0.0176,-0.016,-0.0117,-0.0095,-0.0088,-0.0081,-0.0018,-0.0063,-0.0066,-0.0033,0.0043,0.005,0.0056,-0.0023,-0.0023,-0.0023,0,0,-0.0337,-0.0337,-0.0337,-0.0312,-0.029,-0.026,-0.0267,-0.0232,-0.0233,-0.0203,-0.0195,-0.0178,-0.0135,-0.0105,-0.0084,-0.0074,-0.0035,-0.0087,-0.0083,-0.0013,-0.0006,0.0001,0.0061,0.0074,-0.0091,-0.0091,-0.0091,0,-0.0358,-0.0346,-0.0329,-0.0315,-0.0297,-0.0278,-0.0264,-0.0242,-0.0207,-0.0193,-0.0213,-0.0141,-0.0127,-0.0079,-0.009,-0.008,-0.0038,-0.0082,-0.0016,-0.0008,-0.0,0.006,0.0075,-0.0094,-0.0093,-0.0093,-0.0093,0,-0.0359,-0.0352,-0.035,-0.0325,-0.0301,-0.0288,-0.0251,-0.0241,-0.0241,-0.0208,-0.0176,-0.0144,-0.0097,-0.0108,-0.0099,-0.0046,-0.0036,-0.0032,-0.0011,0.0003,0.0065,0.0082,-0.0098,-0.0097,-0.0096,-0.0095,0,0,-0.0404,-0.0361,-0.0363,-0.0349,-0.0309,-0.0285,-0.0262,-0.0216,-0.0195,-0.0174,-0.0132,-0.0105,-0.0093,-0.0066,-0.0061,-0.0013,0.0051,-0.0011,-0.0005,0.0043,0.0202,0.0168,0.0183,0.0056,0.0059,0.0061,0.0214,0,-0.0415,-0.0395,-0.0363,-0.0336,-0.0321,-0.0284,-0.0248,-0.0208,-0.0179,-0.0131,-0.0099,-0.0059,-0.0076,-0.0069,-0.0021,0.0036,0.0096,0.001,0.0189,0.0195,0.0158,0.0202,0.007,0.0192,0.0231,0.0234,0.0236,0,-0.0434,-0.0411,-0.0398,-0.0334,-0.0324,-0.0302,-0.0245,-0.0207,-0.0133,-0.011,-0.0062,-0.0029,0.0035,0.0017,0.0152,0.0091,0.0152,0.0198,0.0205,0.0219,0.0194,0.0191,0.0222,0.0264,0.0262,0.026,0.0258,0,-0.0488,-0.0435,-0.0428,-0.0411,-0.0339,-0.0326,-0.0284,-0.0214,-0.0182,-0.0098,-0.0068,0.0024,0.006,0.0158,0.0223,0.0199,0.0378,0.0363,0.0405,0.0403,0.0354,0.0343,0.0495,0.0495,0.0494,0.0494,0.0494,0,-0.0521,-0.0513,-0.0456,-0.0455,-0.043,-0.0361,-0.0329,-0.0276,-0.0195,-0.0147,-0.0068,-0.0022,0.0096,0.0192,0.0264,0.0379,0.0418,0.0437,0.0453,0.0324,0.0309,0.0424,0.0414,0.05,0.0498,0.0497,0.0496,0,-0.0601,-0.0565,-0.0552,-0.0486,-0.0468,-0.0459,-0.0383,-0.0349,-0.026,-0.0198,-0.0173,-0.0042,0.0091,0.0212,0.0379,0.0422,0.054,0.0574,0.0405,0.0398,0.0515,0.0499,0.0667,0.0667,0.0668,0.0668,0.0668,0,-0.0646,-0.065,-0.0608,-0.0609,-0.0592,-0.0557,-0.0531,-0.0421,-0.0374,-0.0221,-0.0192,-0.004,0.0048,0.028,0.0357,0.0506,0.0578,0.0523,0.0465,0.0541,0.0539,0.0523,0.0508,0.0372,0.037,0.0368,0.0366,0,-0.0727,-0.0724,-0.0716,-0.0717,-0.0706,-0.0663,-0.0605,-0.0572,-0.0428,-0.0352,-0.0226,-0.0139,0.0036,0.013,0.0313,0.0388,0.0485,0.0493,0.0647,0.0333,0.0271,0.0266,0.0259,0.035,0.0352,0.0353,0.0354,0.0355,-0.0803,-0.0827,-0.0823,-0.0822,-0.0797,-0.0749,-0.0703,-0.0624,-0.0534,-0.04,-0.0334,-0.0212,-0.0116,0.0074,0.0218,0.0365,0.037,0.0423,0.0426,0.0431,0.0354,0.0294,0.0364,0.0366,0.0367,0.0368,0.037,0,-0.0895,-0.0905,-0.0917,-0.0895,-0.0869,-0.0826,-0.0729,-0.0659,-0.0549,-0.047,-0.0391,-0.0307,-0.0214,-0.0012,0.0123,0.0227,0.0215,0.0331,0.0269,0.0279,0.029,0.0205,0.0177,0.0178,0.0179,0.018,0,0,-0.0944,-0.0991,-0.0987,-0.0962,-0.0927,-0.0847,-0.078,-0.0667,-0.0566,-0.0467,-0.0404,-0.045,-0.0239,-0.0159,-0.0041,0.0095,0.0191,0.0125,0.0241,0.0156,0.0168,0.0274,0.0146,0,0,0,0,0]}],[{"header":{"parameterUnit":"m.s-1","parameterCategory":2,"la1":30.2991,"la2":30.254,"lo1":-89.0895,"lo2":-89.0444,"dy":0.0017,"dx":0.0017,"nx":28,"ny":28,"refTime":"2023-11-08T09:00:00:Z","depth":"4","parameterNumber":2,"parameterNumberName":"U-component_of_CURRENTS"},"data":[0,0,0,0,0,0,0,0,0,0,0,0,0,0,0,0,0,0,0,0,0,0,0,0,0,0,0,0,0,0,0,0,0,0,0,0,0,0,0,0,0,0,0,0,0,0,0,0,0,0,0,0,0,0,0,0,0,0,-0.0897,-0.0897,0,-0.0856,-0.0856,-0.0856,-0.0866,-0.0866,-0.0867,-0.0868,-0.0929,-0.093,-0.0931,0,0,0,0,0,0,0,0,0,0,0,0,0,-0.0862,-0.0863,-0.0898,-0.0897,-0.0896,-0.0856,-0.0856,-0.0855,-0.0865,-0.0866,-0.0867,-0.0868,-0.0929,-0.093,-0.0932,0,0,0,0,0,0,0,0,0,0,0,0,0,-0.0856,-0.0864,-0.0898,-0.0896,-0.0895,-0.0856,-0.0856,-0.0855,-0.0865,-0.0866,-0.0867,-0.0868,-0.0929,-0.093,-0.0932,-0.092,0,0,-0.0936,-0.0937,0,0,0,0,0,0,0,0,-0.0856,-0.0858,-0.0897,-0.0896,-0.0895,-0.0866,-0.0866,-0.0882,-0.0865,-0.0878,-0.0868,-0.0869,-0.0916,-0.0919,-0.0909,-0.0923,-0.0925,-0.0936,-0.0937,-0.0938,-0.0938,0,0,0,0,0,0,0,-0.0857,-0.0859,-0.0882,-0.0896,-0.0895,-0.0854,-0.0856,-0.0868,-0.0894,-0.0877,-0.0877,-0.087,-0.0917,-0.0907,-0.0911,-0.0926,-0.0936,-0.0938,-0.0939,-0.0939,-0.1049,-0.1051,0,0,0,0,0,0,-0.0866,-0.086,-0.0884,-0.0881,-0.0877,-0.0855,-0.0856,-0.0875,-0.0892,-0.0894,-0.0869,-0.0871,-0.0904,-0.0909,-0.0913,-0.1004,-0.0938,-0.0939,-0.094,-0.1047,-0.1049,-0.1051,0,0,0,0,0,0,-0.0865,-0.0869,-0.0885,-0.0867,-0.0866,-0.0855,-0.0875,-0.0874,-0.0867,-0.0885,-0.089,-0.0865,-0.0905,-0.0911,-0.0966,-0.1003,-0.094,-0.0941,-0.1044,-0.1048,-0.105,-0.1119,0,0,0,0,0,0,-0.0865,-0.087,-0.0866,-0.0868,-0.0867,-0.089,-0.0874,-0.0872,-0.0861,-0.0862,-0.0883,-0.0889,-0.0907,-0.0964,-0.0968,-0.1004,-0.0943,-0.1042,-0.1046,-0.1049,-0.1114,-0.1124,-0.1133,0,0,0,0,0,-0.0864,-0.0877,-0.0867,-0.0868,-0.0871,-0.0891,-0.0888,-0.0882,-0.0859,-0.0875,-0.0901,-0.0889,-0.099,-0.0967,-0.0971,-0.1008,-0.104,-0.1045,-0.1049,-0.111,-0.1122,-0.1132,0,0,0,0,0,0,-0.086,-0.0879,-0.0868,-0.0885,-0.0893,-0.0893,-0.0889,-0.0877,-0.0899,-0.0913,-0.0913,-0.0923,-0.0995,-0.0985,-0.0958,-0.1052,-0.1013,-0.1018,-0.1058,-0.1069,-0.1078,-0.1089,-0.0944,0,0,0,0,0,-0.0854,-0.0873,-0.0881,-0.0893,-0.0897,-0.0884,-0.0879,-0.0896,-0.0917,-0.0925,-0.0932,-0.096,-0.1012,-0.1027,-0.1071,-0.1103,-0.1101,-0.113,-0.1139,-0.1147,-0.116,-0.1211,-0.1226,-0.1066,-0.1066,-0.1066,0,0,-0.0844,-0.0863,-0.0865,-0.0891,-0.0889,-0.0906,-0.0887,-0.0914,-0.0937,-0.0931,-0.0962,-0.1,-0.1034,-0.1101,-0.1128,-0.1095,-0.1186,-0.1153,-0.1159,-0.1168,-0.1217,-0.1233,-0.1246,-0.1069,-0.1069,-0.1068,0,0,-0.0849,-0.0864,-0.0875,-0.0891,-0.0914,-0.0929,-0.0936,-0.0951,-0.0969,-0.1024,-0.1032,-0.1122,-0.1137,-0.1204,-0.1231,-0.1314,-0.1248,-0.1277,-0.1316,-0.1365,-0.1378,-0.139,-0.1381,-0.1392,-0.1264,-0.1264,-0.1264,0,-0.0837,-0.0854,-0.0879,-0.0899,-0.091,-0.0938,-0.0957,-0.0985,-0.1019,-0.1042,-0.1061,-0.1144,-0.122,-0.1285,-0.1341,-0.1345,-0.1298,-0.127,-0.1377,-0.1389,-0.14,-0.1388,-0.1399,-0.1268,-0.1268,-0.1267,-0.1267,0,-0.0846,-0.0855,-0.087,-0.0907,-0.0935,-0.0967,-0.1016,-0.1052,-0.1088,-0.1116,-0.1201,-0.1294,-0.1354,-0.138,-0.1403,-0.1485,-0.14,-0.1396,-0.1346,-0.142,-0.1402,-0.1412,-0.1273,-0.1272,-0.1271,-0.127,0,0,-0.0832,-0.0867,-0.087,-0.0872,-0.0948,-0.0972,-0.1043,-0.1104,-0.113,-0.1209,-0.1252,-0.1408,-0.1442,-0.1478,-0.1493,-0.1535,-0.1631,-0.148,-0.1481,-0.1466,-0.1646,-0.1407,-0.1393,-0.1591,-0.1594,-0.1596,-0.1592,0,-0.0824,-0.0844,-0.0885,-0.091,-0.0916,-0.0988,-0.1038,-0.1115,-0.1186,-0.1244,-0.1359,-0.1442,-0.1472,-0.1521,-0.1576,-0.1641,-0.166,-0.1628,-0.1582,-0.1582,-0.1357,-0.1401,-0.1605,-0.1599,-0.1602,-0.1603,-0.1604,0,-0.0808,-0.0826,-0.0839,-0.089,-0.0903,-0.0946,-0.1035,-0.1091,-0.1204,-0.1275,-0.137,-0.1434,-0.1583,-0.1588,-0.1705,-0.1647,-0.1663,-0.1676,-0.1676,-0.1438,-0.1361,-0.1519,-0.1622,-0.1621,-0.1619,-0.1618,-0.1617,0,-0.0761,-0.0795,-0.0801,-0.0816,-0.0884,-0.0927,-0.0993,-0.1098,-0.1159,-0.1304,-0.1339,-0.1494,-0.1591,-0.165,-0.1696,-0.1719,-0.1723,-0.1794,-0.1563,-0.1544,-0.1732,-0.1719,-0.1843,-0.1843,-0.1843,-0.1843,-0.1843,0,-0.0726,-0.0734,-0.0773,-0.0781,-0.0796,-0.0887,-0.0958,-0.103,-0.1168,-0.1204,-0.1343,-0.1339,-0.1604,-0.1613,-0.1667,-0.1594,-0.172,-0.157,-0.1535,-0.1755,-0.1746,-0.1736,-0.1724,-0.1843,-0.1843,-0.1843,-0.1843,0,-0.0663,-0.0685,-0.0696,-0.076,-0.0767,-0.0795,-0.0936,-0.0985,-0.1097,-0.1145,-0.1202,-0.1313,-0.1332,-0.1426,-0.1546,-0.1538,-0.1523,-0.1431,-0.1583,-0.1556,-0.1337,-0.1329,-0.1309,-0.1301,-0.1294,-0.1288,-0.1283,0,-0.0635,-0.062,-0.0656,-0.0648,-0.0677,-0.0741,-0.0775,-0.0944,-0.0992,-0.1041,-0.1021,-0.1076,-0.1119,-0.1067,-0.1201,-0.1257,-0.1229,-0.1244,-0.1401,-0.1318,-0.1288,-0.129,-0.1292,-0.1271,-0.127,-0.1268,-0.1266,0,-0.058,-0.0593,-0.0609,-0.0574,-0.0594,-0.0618,-0.0684,-0.0719,-0.0857,-0.0936,-0.087,-0.0888,-0.0843,-0.096,-0.0946,-0.0978,-0.1296,-0.1173,-0.1194,-0.1342,-0.1273,-0.125,-0.1259,-0.1241,-0.1245,-0.1247,-0.1249,0,-0.0553,-0.0538,-0.0539,-0.0512,-0.0507,-0.048,-0.0549,-0.0586,-0.0662,-0.0746,-0.0688,-0.0682,-0.0794,-0.079,-0.0749,-0.079,-0.0881,-0.0963,-0.0997,-0.1025,-0.0933,-0.0804,-0.0594,0,0,0,0,0,-0.0515,-0.049,-0.0466,-0.0437,-0.0429,-0.0415,-0.0458,-0.0538,-0.0634,-0.0572,-0.0672,-0.0608,-0.0611,-0.0599,-0.0607,-0.0645,-0.088,-0.065,-0.0991,-0.1106,-0.1134,-0.1052,0,0,0,0,0,0,-0.0484,-0.0469,-0.0453,-0.0374,-0.0331,-0.0313,-0.0336,-0.0396,-0.0396,-0.0486,-0.0486,-0.0569,-0.0573,-0.0599,-0.0587,-0.0598,-0.0805,-0.0687,-0.0686,-0.109,-0.1116,-0.1138,-0.1063,0,0,0,0,0]},{"header":{"parameterUnit":"m.s-1","parameterCategory":2,"la1":30.2991,"la2":30.254,"lo1":-89.0895,"lo2":-89.0444,"dy":0.0017,"dx":0.0017,"nx":28,"ny":28,"refTime":"2023-11-08T09:00:00:Z","depth":"4","parameterNumber":3,"parameterNumberName":"V-component_of_CURRENTS"},"data":[0,0,0,0,0,0,0,0,0,0,0,0,0,0,0,0,0,0,0,0,0,0,0,0,0,0,0,0,0,0,0,0,0,0,0,0,0,0,0,0,0,0,0,0,0,0,0,0,0,0,0,0,0,0,0,0,0,0,-0.0125,-0.0125,0,-0.0155,-0.0155,-0.0156,-0.0131,-0.0129,-0.0128,-0.0127,-0.0093,-0.0094,-0.0094,0,0,0,0,0,0,0,0,0,0,0,0,0,-0.0095,-0.0096,-0.0125,-0.0125,-0.0125,-0.0155,-0.0155,-0.0156,-0.0131,-0.0129,-0.0128,-0.0126,-0.0093,-0.0094,-0.0094,0,0,0,0,0,0,0,0,0,0,0,0,0,-0.0119,-0.0096,-0.0125,-0.0113,-0.0112,-0.0154,-0.0155,-0.0156,-0.0131,-0.0129,-0.0127,-0.0125,-0.0093,-0.0094,-0.0094,-0.0141,0,0,-0.0096,-0.0097,0,0,0,0,0,0,0,0,-0.0117,-0.012,-0.0115,-0.0114,-0.0113,-0.0133,-0.0132,-0.0147,-0.0132,-0.0128,-0.0127,-0.0124,-0.01,-0.01,-0.0117,-0.0139,-0.0138,-0.0096,-0.0097,-0.0097,-0.0097,0,0,0,0,0,0,0,-0.0116,-0.0119,-0.0141,-0.0115,-0.0114,-0.0123,-0.0124,-0.0136,-0.0128,-0.0129,-0.0126,-0.0123,-0.0099,-0.0116,-0.0116,-0.0137,-0.0096,-0.0097,-0.0097,-0.0098,-0.0165,-0.0167,0,0,0,0,0,0,-0.0104,-0.0118,-0.014,-0.0141,-0.0105,-0.0124,-0.0126,-0.0132,-0.0129,-0.0126,-0.0125,-0.0122,-0.0116,-0.0115,-0.0114,-0.0168,-0.0097,-0.0098,-0.0098,-0.0164,-0.0165,-0.0167,0,0,0,0,0,0,-0.0104,-0.0106,-0.0139,-0.0126,-0.013,-0.0126,-0.0134,-0.0134,-0.0151,-0.0126,-0.0122,-0.0142,-0.0115,-0.0113,-0.0121,-0.0166,-0.0098,-0.0099,-0.0162,-0.0164,-0.0166,-0.0276,0,0,0,0,0,0,-0.0103,-0.0106,-0.012,-0.0126,-0.013,-0.0164,-0.0136,-0.0136,-0.0151,-0.0147,-0.014,-0.0134,-0.0113,-0.012,-0.0121,-0.0166,-0.0099,-0.016,-0.0163,-0.0166,-0.0271,-0.0282,-0.0291,0,0,0,0,0,-0.0102,-0.0126,-0.0121,-0.0123,-0.0145,-0.0165,-0.017,-0.0162,-0.0154,-0.017,-0.0158,-0.0135,-0.0137,-0.0122,-0.0123,-0.0169,-0.0159,-0.0162,-0.0165,-0.0266,-0.028,-0.0291,0,0,0,0,0,0,-0.0124,-0.0126,-0.0119,-0.0144,-0.0152,-0.0159,-0.0174,-0.0175,-0.0185,-0.0178,-0.0155,-0.015,-0.017,-0.0155,-0.0139,-0.0193,-0.0145,-0.0148,-0.0221,-0.0233,-0.0243,-0.0237,-0.01,0,0,0,0,0,-0.0135,-0.0149,-0.0152,-0.0171,-0.0176,-0.0181,-0.0193,-0.0188,-0.0191,-0.0194,-0.0189,-0.0184,-0.019,-0.0197,-0.019,-0.0232,-0.019,-0.026,-0.027,-0.0279,-0.0273,-0.0264,-0.0273,-0.0177,-0.0177,-0.0177,0,0,-0.0147,-0.015,-0.0158,-0.0176,-0.0182,-0.0213,-0.0184,-0.0202,-0.0233,-0.0189,-0.0229,-0.0215,-0.0204,-0.0238,-0.0248,-0.0231,-0.0282,-0.0283,-0.0291,-0.028,-0.0268,-0.0278,-0.0286,-0.018,-0.0179,-0.0179,0,0,-0.0183,-0.0183,-0.0209,-0.0226,-0.0236,-0.024,-0.0248,-0.0263,-0.0269,-0.0302,-0.0278,-0.0294,-0.0304,-0.0315,-0.032,-0.0387,-0.0327,-0.0384,-0.0446,-0.0439,-0.0446,-0.0453,-0.04,-0.0401,-0.0401,-0.0401,-0.0401,0,-0.0196,-0.0233,-0.0222,-0.0259,-0.0278,-0.0257,-0.03,-0.0314,-0.0331,-0.0347,-0.0317,-0.0355,-0.0346,-0.0404,-0.0418,-0.0414,-0.0372,-0.0405,-0.0453,-0.0458,-0.0462,-0.0407,-0.0407,-0.0407,-0.0406,-0.0406,-0.0405,0,-0.0262,-0.0292,-0.0309,-0.0346,-0.0368,-0.0397,-0.0407,-0.0431,-0.043,-0.0441,-0.0479,-0.047,-0.0485,-0.0502,-0.0477,-0.0524,-0.0468,-0.0459,-0.0423,-0.0479,-0.0417,-0.0414,-0.0415,-0.0413,-0.0411,-0.041,0,0,-0.0283,-0.0343,-0.0349,-0.0382,-0.0416,-0.044,-0.0489,-0.0528,-0.0563,-0.0573,-0.0616,-0.0641,-0.0617,-0.0618,-0.0605,-0.0611,-0.0607,-0.0548,-0.0545,-0.0497,-0.0545,-0.0539,-0.0534,-0.0599,-0.06,-0.06,-0.0485,0,-0.0334,-0.0413,-0.0433,-0.0509,-0.055,-0.0558,-0.0608,-0.064,-0.0648,-0.0679,-0.068,-0.0705,-0.0668,-0.0674,-0.0674,-0.0622,-0.0605,-0.0635,-0.0496,-0.0491,-0.0481,-0.0534,-0.0602,-0.0482,-0.0481,-0.0481,-0.0481,0,-0.0395,-0.0438,-0.0523,-0.059,-0.0609,-0.0659,-0.072,-0.0758,-0.0792,-0.0796,-0.0813,-0.0788,-0.0802,-0.0751,-0.0693,-0.0706,-0.0622,-0.0579,-0.0573,-0.0526,-0.0481,-0.0416,-0.0475,-0.0475,-0.0476,-0.0476,-0.0476,0,-0.0416,-0.0499,-0.0565,-0.0594,-0.0671,-0.0717,-0.0753,-0.0803,-0.0832,-0.0864,-0.0871,-0.0873,-0.0863,-0.079,-0.0698,-0.0679,-0.0612,-0.0577,-0.049,-0.0486,-0.0473,-0.0468,-0.0518,-0.0518,-0.0518,-0.0519,-0.0519,0,-0.0457,-0.0514,-0.0585,-0.0628,-0.0709,-0.0752,-0.083,-0.0863,-0.0903,-0.0912,-0.0922,-0.0901,-0.0868,-0.082,-0.0716,-0.0606,-0.0623,-0.0499,-0.0471,-0.0519,-0.0521,-0.047,-0.0466,-0.0514,-0.0515,-0.0516,-0.0517,0,-0.0472,-0.0519,-0.0603,-0.0693,-0.0725,-0.0782,-0.0867,-0.0907,-0.0946,-0.0949,-0.0953,-0.0932,-0.0851,-0.0817,-0.0703,-0.0635,-0.0536,-0.0485,-0.0533,-0.0507,-0.0389,-0.0392,-0.035,-0.0349,-0.0348,-0.0348,-0.0347,0,-0.049,-0.0533,-0.0639,-0.0677,-0.0724,-0.0808,-0.0857,-0.0922,-0.0932,-0.0924,-0.0897,-0.0868,-0.0826,-0.0689,-0.0637,-0.0505,-0.0477,-0.0435,-0.0417,-0.0403,-0.0379,-0.0383,-0.0387,-0.0346,-0.0346,-0.0346,-0.0345,0,-0.0516,-0.0552,-0.0611,-0.0689,-0.0753,-0.081,-0.0862,-0.0871,-0.0892,-0.0933,-0.0837,-0.0781,-0.0703,-0.0624,-0.0584,-0.0463,-0.0483,-0.0426,-0.0425,-0.0408,-0.0398,-0.0375,-0.038,-0.0343,-0.0343,-0.0343,-0.0344,0,-0.0525,-0.0564,-0.063,-0.0691,-0.0754,-0.0769,-0.0816,-0.0809,-0.0833,-0.0812,-0.0755,-0.0696,-0.0683,-0.0594,-0.0513,-0.0469,-0.0407,-0.0373,-0.0373,-0.0375,-0.044,-0.0435,-0.0371,0,0,0,0,0,-0.0524,-0.0558,-0.0618,-0.0681,-0.073,-0.076,-0.0789,-0.0817,-0.0824,-0.075,-0.0759,-0.0666,-0.0565,-0.0525,-0.0466,-0.047,-0.0403,-0.0398,-0.0365,-0.0329,-0.0332,-0.0407,0,0,0,0,0,0,-0.0526,-0.0582,-0.0613,-0.0643,-0.067,-0.0719,-0.0732,-0.0738,-0.0697,-0.0695,-0.0648,-0.064,-0.0555,-0.0601,-0.0462,-0.0448,-0.0413,-0.0368,-0.0366,-0.0327,-0.033,-0.0332,-0.041,0,0,0,0,0]}]]